Location: Düngen
(52.0952°N, 10.0219°E)
Time: 14:33:44
(UTC+00:00)

SJ-6B - Pass Details

Date: 11 March 2026
Orbit: 455 x 498 km, 97.3° (Epoch: 14 April)

Event Time Altitude Azimuth Distance (km) Brightness Sun altitude
Rises 18:00:36 0° 154° (SSE) 2,508 5.9 -7.5°
Reaches altitude 10° 18:02:39 10° 150° (SSE) 1,643 4.9 -7.8°
Maximum altitude 18:06:07 56° 72° (ENE) 580 2.6 -8.3°
Drops below altitude 10° 18:09:40 10° 354° (N) 1,682 5.5 -8.9°
Sets 18:11:47 0° 350° (N) 2,576 6.5 -9.2°
